Meadville, PA

10:18 PM EST on February 25, 2017 (GMT -0500)
Port Meadville

Weather History for KGKJ - November, 2012

Change the Weather History Date:

Sunday, November 25, 2012

  Actual Average Record
Temperature  
Mean Temperature 30 °F -  
Max Temperature 34 °F 43 °F 61 °F (2001)
Min Temperature 26 °F 28 °F 10 °F (1970)
Degree Days  
Heating Degree Days 35    
Moisture  
Dew Point 21 °F    
Average Humidity 74    
Maximum Humidity 86    
Minimum Humidity 56    
Precipitation  
Precipitation 0.05 in - - ()
Sea Level Pressure  
Sea Level Pressure 29.93 in    
Wind  
Wind Speed 9 mph (SW)    
Max Wind Speed 14 mph    
Max Gust Speed 21 mph    
Visibility 6 miles    
Events Fog , Snow    
Averages and records for this station are not official NWS values.
T = Trace of Precipitation, MM = Missing Value Source: NWS Daily Summary

Daily Weather History Graph

Daily Weather History Graph

Search for Another Location

Airport or City:

Trip Planner

Search our weather history database for the weather conditions in past years. The results will help you decide how hot, cold, wet, or windy it might be!

Date:

Astronomy

Nov. 25, 2012 Rise Set
Actual Time 7:22 AM EST 4:53 PM EST
Civil Twilight 6:51 AM EST 5:24 PM EST
Nautical Twilight 6:17 AM EST 5:58 PM EST
Astronomical Twilight 5:44 AM EST 6:31 PM EST
Moon 3:10 PM EST (11/25) 4:33 AM EST (11/25)
Length of Visible Light 10h 32m
Length of Day
9h 31m
Waxing Gibbous, 93% of the Moon is Illuminated
Nov 25
Waxing Gibbous
Nov 28
Full
Dec 6
Last Quarter
Dec 13
New
Dec 20
First Quarter

Hourly Weather History & Observations

Time (EST) Temp. Windchill Dew Point Humidity Pressure Visibility Wind Dir Wind Speed Gust Speed Precip Events Conditions
12:53 AM 28.9 °F 21.9 °F 21.0 °F 72% 30.01 in 10.0 mi WSW 6.9 mph - N/A   Overcast
1:07 AM 28.4 °F 19.7 °F 19.4 °F 69% 29.96 in 10.0 mi WSW 9.2 mph - N/A   Overcast
1:53 AM 28.9 °F 21.1 °F 19.9 °F 69% 30.01 in 10.0 mi WSW 8.1 mph - N/A   Overcast
2:53 AM 28.9 °F 19.2 °F 19.0 °F 67% 30.02 in 10.0 mi WSW 11.5 mph 18.4 mph N/A   Overcast
3:53 AM 28.0 °F 20.8 °F 19.9 °F 72% 30.00 in 10.0 mi WSW 6.9 mph 17.3 mph N/A   Overcast
4:53 AM 28.0 °F 19.3 °F 19.0 °F 69% 30.00 in 10.0 mi WSW 9.2 mph - N/A   Overcast
5:53 AM 28.0 °F 20.0 °F 19.0 °F 69% 29.99 in 10.0 mi WSW 8.1 mph - N/A   Overcast
6:53 AM 28.0 °F 19.3 °F 18.0 °F 66% 29.99 in 10.0 mi SW 9.2 mph 16.1 mph N/A   Overcast
7:41 AM 26.6 °F 19.1 °F 19.4 °F 74% 29.94 in 2.5 mi SSW 6.9 mph - 0.00 in Snow Light Snow
7:51 AM 26.6 °F 17.5 °F 19.4 °F 74% 29.94 in 3.0 mi SSW 9.2 mph - 0.00 in Snow Light Snow
7:53 AM 27.0 °F 17.3 °F 19.9 °F 75% 29.99 in 3.0 mi SSW 10.4 mph - 0.00 in Snow Light Snow
7:59 AM 26.6 °F 17.5 °F 21.2 °F 80% 29.93 in 1.8 mi SSW 9.2 mph - 0.00 in Snow Light Snow
8:12 AM 26.6 °F 16.8 °F 21.2 °F 80% 29.94 in 0.5 mi SSW 10.4 mph - 0.00 in Fog , Snow Snow
8:21 AM 26.6 °F 16.2 °F 21.2 °F 80% 29.94 in 0.5 mi SSW 11.5 mph - 0.00 in Fog , Snow Snow
8:29 AM 26.6 °F 17.5 °F 21.2 °F 80% 29.93 in 0.5 mi SSW 9.2 mph - 0.00 in Fog , Snow Snow
8:53 AM 26.1 °F 17.6 °F 21.9 °F 84% 29.98 in 0.8 mi SSW 8.1 mph - 0.00 in Snow Light Snow
9:12 AM 26.6 °F 17.5 °F 23.0 °F 86% 29.92 in 0.2 mi SSW 9.2 mph - 0.00 in Fog , Snow Heavy Snow
9:28 AM 26.6 °F 17.5 °F 23.0 °F 86% 29.91 in 0.8 mi SSW 9.2 mph - 0.00 in Snow Light Snow
9:38 AM 26.6 °F 16.8 °F 23.0 °F 86% 29.91 in 1.0 mi SSW 10.4 mph - 0.00 in Snow Light Snow
9:45 AM 26.6 °F 16.8 °F 23.0 °F 86% 29.91 in 1.0 mi SSW 10.4 mph - 0.00 in Snow Light Snow
9:53 AM 26.1 °F 15.0 °F 21.9 °F 84% 29.96 in 0.5 mi SSW 12.7 mph - 0.00 in Fog , Snow Snow
10:14 AM 26.6 °F 17.5 °F 23.0 °F 86% 29.91 in 1.5 mi SSW 9.2 mph 19.6 mph 0.00 in Snow Light Snow
10:21 AM 26.6 °F 15.2 °F 21.2 °F 80% 29.91 in 1.8 mi SSW 13.8 mph 19.6 mph 0.00 in Snow Light Snow
10:29 AM 26.6 °F 15.7 °F 21.2 °F 80% 29.91 in 1.5 mi SSW 12.7 mph 20.7 mph 0.00 in Snow Light Snow
10:33 AM 26.6 °F 15.7 °F 21.2 °F 80% 29.90 in 2.0 mi SSW 12.7 mph 20.7 mph 0.00 in Snow Light Snow
10:43 AM 26.6 °F 16.8 °F 21.2 °F 80% 29.90 in 6.0 mi SSW 10.4 mph 18.4 mph 0.00 in Snow Light Snow
10:53 AM 27.0 °F 16.1 °F 21.9 °F 81% 29.94 in 8.0 mi SSW 12.7 mph - 0.00 in   Overcast
11:12 AM 26.6 °F 16.2 °F 21.2 °F 80% 29.88 in 9.0 mi SSW 11.5 mph - N/A   Overcast
11:20 AM 26.6 °F 16.8 °F 21.2 °F 80% 29.88 in 10.0 mi SSW 10.4 mph 18.4 mph N/A   Overcast
11:53 AM 28.0 °F 17.5 °F 21.0 °F 75% 29.91 in 10.0 mi SSW 12.7 mph 19.6 mph N/A   Overcast
12:53 PM 30.0 °F 20.5 °F 21.0 °F 69% 29.87 in 10.0 mi SSW 11.5 mph - N/A   Overcast
1:53 PM 32.0 °F 27.5 °F 21.0 °F 64% 29.86 in 10.0 mi SW 4.6 mph - N/A   Overcast
2:53 PM 34.0 °F 28.8 °F 21.0 °F 59% 29.86 in 10.0 mi Variable 5.8 mph - 0.03 in   Scattered Clouds
3:53 PM 34.0 °F 27.2 °F 19.9 °F 56% 29.87 in 10.0 mi WSW 8.1 mph - 0.01 in   Partly Cloudy
4:53 PM 33.1 °F - 21.0 °F 61% 29.87 in 10.0 mi Calm Calm - 0.01 in   Overcast
5:53 PM 33.1 °F 30.0 °F 21.9 °F 64% 29.90 in 10.0 mi SSW 3.5 mph - N/A   Overcast
6:53 PM 33.1 °F 30.0 °F 21.9 °F 64% 29.91 in 10.0 mi SW 3.5 mph - N/A   Overcast
7:53 PM 33.1 °F 30.0 °F 21.9 °F 64% 29.94 in 10.0 mi SW 3.5 mph - N/A   Overcast
8:53 PM 33.1 °F 27.7 °F 24.1 °F 70% 29.94 in 10.0 mi WSW 5.8 mph - N/A   Overcast
9:53 PM 34.0 °F 29.8 °F 25.0 °F 70% 29.94 in 10.0 mi SW 4.6 mph - N/A   Overcast
10:53 PM 34.0 °F 29.8 °F 26.1 °F 73% 29.95 in 10.0 mi WSW 4.6 mph - N/A   Overcast
11:53 PM 34.0 °F 28.8 °F 26.1 °F 73% 29.98 in 10.0 mi SW 5.8 mph - N/A   Overcast